| time (UTC) | temp F | wind direction | speed MPH | gust MPH | rain 1hr in | rain 24hr in | rain mn in | humidity % | barometer mb |
| 20260902201608 | 53 | 188 | 4.0 | 7.0 | 0.00 | 0.00 | 0.00 | 82 | 1008.2 |
| 20260902200008 | 53 | 198 | 3.0 | 8.0 | 0.00 | 0.00 | 0.00 | 80 | 1008.3 |
| 20260902194508 | 54 | 184 | 4.0 | 7.0 | 0.00 | 0.00 | 0.00 | 79 | 1008.2 |
| 20260902193006 | 55 | 205 | 3.0 | 8.0 | 0.00 | 0.00 | 0.00 | 77 | 1008.3 |
| 20260902191609 | 55 | 230 | 4.0 | 9.0 | 0.00 | 0.00 | 0.00 | 76 | 1008.3 |
| 20260902190009 | 56 | 221 | 7.0 | 14.0 | 0.00 | 0.00 | 0.00 | 75 | 1008.3 |
| 20260902184603 | 56 | 221 | 4.0 | 8.0 | 0.00 | 0.00 | 0.00 | 73 | 1008.2 |
| 20260902183004 | 57 | 233 | 6.0 | 12.0 | 0.00 | 0.00 | 0.00 | 71 | 1008.1 |
| 20260902181505 | 57 | 228 | 7.0 | 15.0 | 0.00 | 0.00 | 0.00 | 72 | 1008.0 |
| 20260902180008 | 58 | 219 | 6.0 | 11.0 | 0.00 | 0.00 | 0.00 | 72 | 1007.9 |
| 20260902174504 | 59 | 239 | 7.0 | 13.0 | 0.00 | 0.00 | 0.00 | 71 | 1007.8 |
| 20260902173005 | 59 | 243 | 7.0 | 11.0 | 0.00 | 0.00 | 0.00 | 70 | 1007.8 |
| 20260902171506 | 60 | 223 | 7.0 | 15.0 | 0.00 | 0.00 | 0.00 | 68 | 1007.8 |
| 20260902170008 | 60 | 233 | 9.0 | 20.0 | 0.00 | 0.00 | 0.00 | 67 | 1007.8 |
| 20260902164507 | 61 | 259 | 12.0 | 18.0 | 0.00 | 0.00 | 0.00 | 64 | 1007.8 |
| 20260902163008 | 61 | 246 | 8.0 | 17.0 | 0.00 | 0.00 | 0.00 | 64 | 1007.8 |
| 20260902161508 | 62 | 254 | 12.0 | 18.0 | 0.00 | 0.00 | 0.00 | 62 | 1007.8 |
| 20260902160012 | 62 | 254 | 10.0 | 22.0 | 0.00 | 0.00 | 0.00 | 62 | 1007.7 |
| 20260902154503 | 62 | 270 | 11.0 | 21.0 | 0.00 | 0.00 | 0.00 | 60 | 1007.8 |
| 20260902153008 | 63 | 263 | 15.0 | 19.0 | 0.00 | 0.00 | 0.00 | 59 | 1007.8 |
| 20260902151507 | 63 | 240 | 7.0 | 15.0 | 0.00 | 0.00 | 0.00 | 61 | 1007.8 |
| 20260902150008 | 63 | 242 | 10.0 | 19.0 | 0.00 | 0.00 | 0.00 | 59 | 1007.9 |
| 20260902144507 | 63 | 244 | 10.0 | 16.0 | 0.00 | 0.00 | 0.00 | 59 | 1008.0 |
| 20260902143003 | 64 | 255 | 12.0 | 20.0 | 0.00 | 0.00 | 0.00 | 58 | 1008.0 |
| 20260902141506 | 64 | 234 | 12.0 | 24.0 | 0.00 | 0.00 | 0.00 | 56 | 1008.0 |
| 20260902140008 | 64 | 266 | 15.0 | 22.0 | 0.00 | 0.00 | 0.00 | 57 | 1008.2 |
| 20260902134504 | 64 | 250 | 11.0 | 22.0 | 0.00 | 0.00 | 0.00 | 57 | 1008.3 |
| 20260902133008 | 64 | 241 | 13.0 | 23.0 | 0.00 | 0.00 | 0.00 | 58 | 1008.3 |
| 20260902131505 | 64 | 250 | 14.0 | 23.0 | 0.00 | 0.00 | 0.00 | 58 | 1008.3 |
| 20260902130005 | 64 | 253 | 15.0 | 23.0 | 0.00 | 0.00 | 0.00 | 58 | 1008.2 |
| 20260902124604 | 63 | 257 | 12.0 | 26.0 | 0.00 | 0.00 | 0.00 | 58 | 1008.3 |
| 20260902123006 | 63 | 244 | 15.0 | 23.0 | 0.00 | 0.00 | 0.00 | 58 | 1008.3 |
| 20260902121503 | 63 | 257 | 15.0 | 25.0 | 0.00 | 0.00 | 0.00 | 57 | 1008.3 |
| 20260902120006 | 63 | 221 | 13.0 | 26.0 | 0.00 | 0.00 | 0.00 | 56 | 1008.4 |
| 20260902114603 | 63 | 246 | 10.0 | 23.0 | 0.00 | 0.00 | 0.00 | 57 | 1008.3 |
| 20260902113009 | 64 | 248 | 15.0 | 26.0 | 0.00 | 0.00 | 0.00 | 55 | 1008.3 |
| 20260902111604 | 64 | 253 | 19.0 | 27.0 | 0.00 | 0.00 | 0.00 | 59 | 1008.2 |
| 20260902110014 | 63 | 225 | 14.0 | 24.0 | 0.00 | 0.00 | 0.00 | 61 | 1008.2 |
| 20260902104507 | 64 | 249 | 11.0 | 22.0 | 0.00 | 0.00 | 0.00 | 65 | 1008.0 |
| 20260902103005 | 63 | 229 | 13.0 | 20.0 | 0.00 | 0.00 | 0.00 | 67 | 1008.0 |
| 20260902101623 | 63 | 231 | 13.0 | 19.0 | 0.00 | 0.00 | 0.00 | 69 | 1008.1 |
| 20260902100008 | 64 | 219 | 16.0 | 22.0 | 0.00 | 0.00 | 0.00 | 67 | 1008.0 |
| 20260902094605 | 64 | 227 | 16.0 | 24.0 | 0.00 | 0.00 | 0.00 | 70 | 1008.1 |
| 20260902093104 | 64 | 242 | 12.0 | 19.0 | 0.00 | 0.00 | 0.00 | 72 | 1008.1 |
| 20260902091505 | 64 | 225 | 13.0 | 22.0 | 0.00 | 0.00 | 0.00 | 71 | 1008.1 |
| 20260902090009 | 63 | 220 | 15.0 | 21.0 | 0.00 | 0.00 | 0.00 | 74 | 1008.1 |
| 20260902084504 | 63 | 232 | 14.0 | 21.0 | 0.00 | 0.00 | 0.00 | 78 | 1008.0 |
| 20260902083004 | 63 | 204 | 10.0 | 17.0 | 0.00 | 0.00 | 0.00 | 85 | 1007.9 |
| 20260902081513 | 62 | 209 | 11.0 | 16.0 | 0.00 | 0.00 | 0.00 | 87 | 1007.9 |
| 20260902074504 | 60 | 215 | 7.0 | 14.0 | 0.00 | 0.00 | 0.00 | 90 | 1008.1 |
| 20260902073004 | 59 | 192 | 11.0 | 17.0 | 0.00 | 0.00 | 0.00 | 92 | 1008.1 |
| 20260902071605 | 58 | 213 | 8.0 | 13.0 | 0.00 | 0.00 | 0.00 | 93 | 1008.1 |
| 20260902070009 | 57 | 194 | 5.0 | 9.0 | 0.00 | 0.00 | 0.00 | 94 | 1008.1 |
| 20260902063009 | 56 | 180 | 7.0 | 10.0 | 0.00 | 0.00 | 0.00 | 94 | 1008.2 |
| 20260902061507 | 55 | 202 | 6.0 | 9.0 | 0.00 | 0.00 | 0.00 | 94 | 1008.3 |
| 20260902060016 | 55 | 183 | 7.0 | 11.0 | 0.00 | 0.00 | 0.00 | 94 | 1008.2 |
| 20260902054511 | 55 | 190 | 7.0 | 13.0 | 0.00 | 0.00 | 0.00 | 94 | 1008.1 |
| 20260902053005 | 55 | 177 | 7.0 | 13.0 | 0.00 | 0.00 | 0.00 | 94 | 1008.1 |
| 20260902051603 | 55 | 206 | 7.0 | 14.0 | 0.00 | 0.00 | 0.00 | 94 | 1008.2 |
| 20260902050011 | 55 | 167 | 7.0 | 13.0 | 0.00 | 0.00 | 0.00 | 94 | 1008.2 |
| 20260902044504 | 54 | 195 | 8.0 | 13.0 | 0.00 | 0.01 | 0.00 | 95 | 1008.2 |
| 20260902043004 | 53 | 194 | 9.0 | 13.0 | 0.00 | 0.01 | 0.00 | 95 | 1008.3 |
| 20260902041508 | 53 | 179 | 6.0 | 10.0 | 0.00 | 0.01 | 0.00 | 95 | 1008.3 |
| 20260902040010 | 53 | 211 | 6.0 | 9.0 | 0.00 | 0.01 | 0.00 | 95 | 1008.5 |
| 20260902034504 | 53 | 207 | 5.0 | 10.0 | 0.00 | 0.10 | 0.00 | 95 | 1008.5 |
| 20260902033006 | 53 | 217 | 7.0 | 11.0 | 0.00 | 0.10 | 0.00 | 95 | 1008.5 |
| 20260902031603 | 53 | 192 | 5.0 | 8.0 | 0.00 | 0.10 | 0.00 | 95 | 1008.5 |
| 20260902030003 | 53 | 207 | 5.0 | 9.0 | 0.00 | 0.10 | 0.00 | 95 | 1008.5 |
| 20260902024506 | 53 | 198 | 6.0 | 9.0 | 0.00 | 0.10 | 0.00 | 95 | 1008.6 |
| 20260902023008 | 53 | 187 | 7.0 | 12.0 | 0.00 | 0.10 | 0.00 | 95 | 1008.6 |
| 20260902021506 | 53 | 191 | 4.0 | 9.0 | 0.00 | 0.10 | 0.00 | 94 | 1008.6 |
| 20260902020003 | 53 | 193 | 6.0 | 10.0 | 0.00 | 0.10 | 0.00 | 94 | 1008.5 |
| 20260902014504 | 53 | 205 | 6.0 | 11.0 | 0.00 | 0.10 | 0.00 | 94 | 1008.5 |
| 20260902013006 | 54 | 198 | 5.0 | 10.0 | 0.00 | 0.10 | 0.00 | 94 | 1008.5 |
| 20260902011503 | 54 | 196 | 5.0 | 9.0 | 0.00 | 0.10 | 0.00 | 93 | 1008.6 |
| 20260902010008 | 54 | 194 | 7.0 | 11.0 | 0.00 | 0.10 | 0.00 | 93 | 1008.5 |
| 20260902004605 | 55 | 205 | 7.0 | 11.0 | 0.00 | 0.10 | 0.00 | 93 | 1008.5 |
| 20260902003104 | 55 | 227 | 6.0 | 12.0 | 0.00 | 0.10 | 0.00 | 93 | 1008.5 |
| 20260902001503 | 56 | 228 | 8.0 | 12.0 | 0.00 | 0.10 | 0.00 | 93 | 1008.5 |
| 20260902000007 | 56 | 208 | 8.0 | 16.0 | 0.00 | 0.10 | 0.00 | 93 | 1008.5 |
| 20260901234617 | 56 | 228 | 8.0 | 11.0 | 0.00 | 0.10 | 0.00 | 94 | 1008.5 |
| 20260901233004 | 56 | 217 | 6.0 | 10.0 | 0.00 | 0.10 | 0.00 | 95 | 1008.6 |
| 20260901231510 | 55 | 190 | 6.0 | 9.0 | 0.00 | 0.10 | 0.00 | 95 | 1008.6 |
| 20260901230007 | 55 | 213 | 5.0 | 0.0 | 0.00 | 0.00 | 0.00 | 95 | 1008.6 |
| 20260901224603 | 54 | 217 | 4.0 | 9.0 | 0.00 | 0.10 | 0.00 | 95 | 1008.5 |
| 20260901223006 | 55 | 216 | 4.0 | 8.0 | 0.00 | 0.10 | 0.00 | 94 | 1008.6 |
| 20260901221514 | 55 | 201 | 3.0 | 9.0 | 0.00 | 0.10 | 0.00 | 93 | 1008.6 |
| 20260901220002 | 55 | 211 | 4.0 | 13.0 | 0.00 | 0.10 | 0.00 | 93 | 1008.6 |
| 20260901214604 | 55 | 217 | 6.0 | 10.0 | 0.00 | 0.10 | 0.10 | 93 | 1008.6 |
| 20260901213102 | 55 | 200 | 2.0 | 7.0 | 0.00 | 0.10 | 0.10 | 92 | 1008.6 |
| 20260901211506 | 55 | 208 | 4.0 | 6.0 | 0.00 | 0.10 | 0.10 | 91 | 1008.5 |
| 20260901210007 | 56 | 177 | 3.0 | 6.0 | 0.00 | 0.10 | 0.10 | 90 | 1008.7 |
| 20260901204504 | 56 | 220 | 4.0 | 7.0 | 0.00 | 0.10 | 0.10 | 89 | 1008.6 |
| 20260901203010 | 57 | 213 | 2.0 | 7.0 | 0.00 | 0.10 | 0.10 | 87 | 1008.6 |